Terug naar catalogus

SL-8 DEB

ActiefLEO
NORAD 25027·DEBRIS·🇷🇺 Russia

Gelanceerd Aug 12, 1992 vanaf Plesetsk Cosmodrome

Loading…

Volgende Passages (komende 24 uur)

TLE

VersSource: Space-Track

Epoch: Sep 14, 2026, 07:10 UTC

1 25027U 92053D   26257.29891365  .00000558  00000-0  16954-3 0  9996
2 25027  74.0293 304.4895 0002754  24.2309 101.9308 14.44484992542062

Volg SL-8 DEB in realtime met AllMySat

Download on the App Store